Location: Newark
(33.9035°S, 18.4112°E)
Time: 00:35:08
(UTC+00:00)

STARLINK-1126 - Pass Details

Date: 18 January 2020
Orbit: 348 x 351 km, 53.0° (Epoch: 17 February)

Event Time Altitude Azimuth Distance (km) Brightness Sun altitude
Exits shadow 01:57:42 - 48° (NE) 2,080 6.6 -20.4°
Enters shadow 02:53:19 -75° 305° (NW) 12,644 10.5 -11.6°
Maximum altitude 03:33:06 56° 48° (NE) 428 3.2 -4.6°
